Weather History for Billings, MT

Change the Weather History Date:

Wednesday, May 8, 2013

  Actual Average Record
Temperature  
Mean Temperature 58 °F 53 °F  
Max Temperature 71 °F 65 °F 90 °F (1987)
Min Temperature 44 °F 41 °F 26 °F (2010)
Degree Days  
Heating Degree Days 7 12  
Month to date heating degree days 98 106  
Since 1 July heating degree days 6190 6483  
Cooling Degree Days 0 0  
Month to date cooling degree days 0 0  
Year to date cooling degree days 0 1  
Growing Degree Days 7 (Base 50)    
Moisture  
Dew Point 36 °F    
Average Humidity 47    
Maximum Humidity 65    
Minimum Humidity 29    
Precipitation  
Precipitation 0.00 in 0.07 in 0.57 in (1986)
Month to date precipitation 0.02 0.51  
Year to date precipitation 2.18 4.19  
Snow  
Snow 0.00 in 0.10 in 2.60 in (1986)
Month to date snowfall T 1.0  
Since 1 July snowfall 40.4 54.0  
Snow Depth 0.00 in    
Sea Level Pressure  
Sea Level Pressure 30.06 in    
Wind  
Wind Speed 9 mph (NE)    
Max Wind Speed 18 mph    
Max Gust Speed 22 mph    
Visibility 10 miles    
Events      
T = Trace of Precipitation, MM = Missing Value Source: NWS Daily Summary

Daily Weather History Graph

Daily Weather History Graph

Search for Another Location

Airport:

Trip Planner

Search our weather history database for the weather conditions in past years. The results will help you decide how hot, cold, wet, or windy it might be!

Date:

Astronomy

May. 08, 2013 Rise Set
Actual Time 5:51 AM MDT 8:31 PM MDT
Civil Twilight 5:17 AM MDT 9:05 PM MDT
Nautical Twilight 4:34 AM MDT 9:48 PM MDT
Astronomical Twilight 3:44 AM MDT 10:38 PM MDT
Moon 5:05 AM MDT (5/8) 7:29 PM MDT (5/8)
Length of Visible Light 15h 47m
Length of Day
14h 39m
Waning Crescent, 2% of the Moon is Illuminated
May 8
Waning Crescent
May 9
New
May 17
First Quarter
May 24
Full
May 31
Last Quarter

Hourly Weather History & Observations

Time (MDT) Temp. Windchill Dew Point Humidity Pressure Visibility Wind Dir Wind Speed Gust Speed Precip Events Conditions
12:53 AM 57.9 °F - 36.0 °F 44% 29.92 in 10.0 mi NNE 15.0 mph - N/A   Clear
1:53 AM 55.9 °F - 37.0 °F 49% 29.94 in 10.0 mi NNE 15.0 mph - N/A   Clear
2:53 AM 53.1 °F - 36.0 °F 52% 29.95 in 10.0 mi North 16.1 mph - N/A   Clear
3:53 AM 51.1 °F - 35.1 °F 54% 30.00 in 10.0 mi North 5.8 mph - N/A   Clear
4:53 AM 46.0 °F 40.6 °F 34.0 °F 63% 30.04 in 10.0 mi WNW 11.5 mph - N/A   Partly Cloudy
5:53 AM 45.0 °F 39.3 °F 34.0 °F 65% 30.06 in 10.0 mi WNW 11.5 mph - N/A   Scattered Clouds
6:53 AM 48.0 °F - 35.1 °F 61% 30.07 in 10.0 mi NNW 10.4 mph - N/A   Scattered Clouds
7:53 AM 50.0 °F - 35.1 °F 57% 30.09 in 10.0 mi North 8.1 mph - N/A   Scattered Clouds
8:53 AM 53.1 °F - 35.1 °F 50% 30.12 in 10.0 mi NNE 4.6 mph - N/A   Partly Cloudy
9:53 AM 55.9 °F - 36.0 °F 47% 30.12 in 10.0 mi Calm Calm - N/A   Partly Cloudy
10:53 AM 60.1 °F - 37.0 °F 42% 30.12 in 10.0 mi NNE 5.8 mph - N/A   Partly Cloudy
11:53 AM 64.9 °F - 37.0 °F 36% 30.10 in 10.0 mi North 10.4 mph - N/A   Scattered Clouds
12:53 PM 66.0 °F - 37.0 °F 34% 30.09 in 10.0 mi ESE 8.1 mph - N/A   Partly Cloudy
1:53 PM 66.9 °F - 37.0 °F 33% 30.08 in 10.0 mi ENE 6.9 mph - N/A   Partly Cloudy
2:53 PM 69.1 °F - 37.0 °F 31% 30.08 in 10.0 mi ENE 6.9 mph - N/A   Partly Cloudy
3:53 PM 70.0 °F - 37.0 °F 30% 30.06 in 10.0 mi ENE 6.9 mph 17.3 mph N/A   Partly Cloudy
4:53 PM 71.1 °F - 37.9 °F 30% 30.06 in 10.0 mi ENE 6.9 mph 19.6 mph N/A   Partly Cloudy
5:53 PM 70.0 °F - 37.0 °F 30% 30.06 in 10.0 mi ENE 9.2 mph - N/A   Clear
6:53 PM 69.1 °F - 37.9 °F 32% 30.05 in 10.0 mi East 13.8 mph - N/A   Clear
7:53 PM 66.9 °F - 37.9 °F 34% 30.06 in 10.0 mi ENE 8.1 mph - N/A   Clear
8:53 PM 63.0 °F - 37.9 °F 40% 30.07 in 10.0 mi East 8.1 mph - N/A   Clear
9:53 PM 60.1 °F - 37.9 °F 44% 30.08 in 10.0 mi East 9.2 mph - N/A   Clear
10:53 PM 57.0 °F - 37.9 °F 49% 30.08 in 10.0 mi NE 8.1 mph - N/A   Clear
11:53 PM 54.0 °F - 37.0 °F 53% 30.08 in 10.0 mi NNE 8.1 mph - N/A   Clear